This is the latest recevied weather packets stored in our database for station/object IZ1UQG-2. If no packets are shown the sender has not sent any weather packets the latest 10 day(s).
| Time | Temp. | Humidity | Pressure | Rain* | Wind** | Luminosity | Snow |
|---|---|---|---|---|---|---|---|
| 1778170083 | 21.11° C | 42% | 1009.1 hPa | 0 mm | - | 369 W/m² | - |
| 1778169904 | 21.11° C | 41% | 1009.1 hPa | 0 mm | - | 380 W/m² | - |
| 1778169604 | 21.11° C | 43% | 1009.1 hPa | 0 mm | - | 401 W/m² | - |
| 1778169484 | 21.11° C | 44% | 1009.1 hPa | 0 mm | - | 403 W/m² | - |
| 1778169424 | 21.11° C | 44% | 1009.1 hPa | 0 mm | - | 404 W/m² | - |
| 1778169305 | 21.11° C | 44% | 1009.1 hPa | 0 mm | - | 408 W/m² | - |
| 1778169244 | 21.11° C | 44% | 1009.1 hPa | 0 mm | - | 411 W/m² | - |
| 1778169124 | 21.11° C | 42% | 1009.2 hPa | 0 mm | - | 418 W/m² | - |
| 1778168644 | 21.11° C | 43% | 1009.2 hPa | 0 mm | - | 438 W/m² | - |
| 1778168104 | 21.67° C | 44% | 1009.1 hPa | 0 mm | - | 462 W/m² | - |
| 1778167924 | 21.67° C | 43% | 1009.2 hPa | 0 mm | - | 478 W/m² | - |
| 1778167864 | 21.11° C | 43% | 1009.2 hPa | 0 mm | - | 483 W/m² | - |
| 1778167805 | 21.11° C | 43% | 1009.1 hPa | 0 mm | - | 483 W/m² | - |
| 1778167385 | 21.11° C | 43% | 1009.2 hPa | 0 mm | - | 506 W/m² | - |
| 1778167083 | 20.56° C | 43% | 1009.2 hPa | 0 mm | - | 520 W/m² | - |
| 1778167023 | 21.11° C | 43% | 1009.3 hPa | 0 mm | - | 520 W/m² | - |
| 1778166904 | 21.11° C | 43% | 1009.2 hPa | 0 mm | - | 520 W/m² | - |
| 1778166063 | 20.56° C | 44% | 1009.3 hPa | 0 mm | - | 556 W/m² | - |
| 1778165884 | 21.11° C | 44% | 1009.3 hPa | 0 mm | - | 561 W/m² | - |
| 1778165464 | 21.11° C | 45% | 1009.4 hPa | 0 mm | - | 599 W/m² | - |
| 1778164804 | 21.11° C | 47% | 1009.4 hPa | 0 mm | - | 617 W/m² | - |
| 1778164685 | 21.11° C | 47% | 1009.3 hPa | 0 mm | - | 622 W/m² | - |
| 1778164084 | 21.11° C | 46% | 1009.5 hPa | 0 mm | - | 647 W/m² | - |
| 1778163604 | 20.56° C | 47% | 1009.5 hPa | 0 mm | - | 621 W/m² | - |
| 1778163484 | 20.56° C | 46% | 1009.5 hPa | 0 mm | - | 443 W/m² | - |
* Rain latest hour (hover to see other rain measurements)
** Current wind speed in m/s (hover to see current wind gust speed)